,,Stat6,,Stat2,,Stat8,,Stat9,,Stat10,,Wind1,,Wind1,
time,status,PA1M_AVG,status,PR1M_SUM,status,RH1M_AVG,status,SR1M_AVG,status,TA1M_AVG,status,W1dAve1m,status,W1sAve1m,
2009-08-19, 00:00:00,VALID,919.307,VALID,0,VALID,100,VALID,0.0169808,VALID,20.3626,VALID,179,VALID,0,
2009-08-19, 00:01:00,VALID,919.311,VALID,0,VALID,100,VALID,0,VALID,20.3423,VALID,179,VALID,0,
2009-08-19, 00:02:00,VALID,919.307,VALID,0,VALID,100,VALID,0.0169808,VALID,20.3166,VALID,179,VALID,0,
2009-08-19, 00:03:00,VALID,919.307,VALID,0,VALID,100,VALID,0,VALID,20.2909,VALID,179,VALID,0,
2009-08-19, 00:04:00,VALID,919.297,VALID,0,VALID,100,VALID,0.0169808,VALID,20.2677,VALID,179,VALID,0,
2009-08-19, 00:05:00,VALID,919.286,VALID,0,VALID,100,VALID,0,VALID,20.2817,VALID,179,VALID,0,
2009-08-19, 00:06:00,VALID,919.286,VALID,0,VALID,100,VALID,0,VALID,20.2584,VALID,179,VALID,0,
2009-08-19, 00:07:00,VALID,919.275,VALID,0,VALID,100,VALID,0,VALID,20.2557,VALID,179,VALID,0,
2009-08-19, 00:08:00,VALID,919.279,VALID,0,VALID,100,VALID,0.0339617,VALID,20.2555,VALID,179,VALID,0,
2009-08-19, 00:09:00,VALID,919.275,VALID,0,VALID,100,VALID,0,VALID,20.2425,VALID,179,VALID,0,
2009-08-19, 00:10:00,VALID,919.273,VALID,0,VALID,100,VALID,0,VALID,20.239,VALID,122,VALID,0,
2009-08-19, 00:11:00,VALID,919.264,VALID,0,VALID,100,VALID,0.0339617,VALID,20.2357,VALID,91,VALID,0,
2009-08-19, 00:12:00,VALID,919.264,VALID,0,VALID,100,VALID,0,VALID,20.2297,VALID,81,VALID,0,
2009-08-19, 00:13:00,VALID,919.274,VALID,0,VALID,100,VALID,-0.0679233,VALID,20.2205,VALID,70,VALID,0,
2009-08-19, 00:14:00,VALID,919.282,VALID,0,VALID,100,VALID,-0.0509425,VALID,20.2046,VALID,58,VALID,0.583939,
2009-08-19, 00:15:00,VALID,919.283,VALID,0,VALID,100,VALID,-0.0679233,VALID,20.1918,VALID,57,VALID,0.709413,
2009-08-19, 00:16:00,VALID,919.271,VALID,0,VALID,100,VALID,-0.0509425,VALID,20.2308,VALID,56,VALID,0.635831,
2009-08-19, 00:17:00,VALID,919.264,VALID,0,VALID,100,VALID,-0.0339617,VALID,20.2597,VALID,56,VALID,0.0640244,
2009-08-19, 00:18:00,VALID,919.242,VALID,0,VALID,100,VALID,-0.0679233,VALID,20.2787,VALID,52,VALID,0,
2009-08-19, 00:19:00,VALID,919.239,VALID,0,VALID,100,VALID,-0.0679233,VALID,20.2919,VALID,34,VALID,0,
2009-08-19, 00:20:00,VALID,919.213,VALID,0,VALID,100,VALID,-0.0339617,VALID,20.2957,VALID,31,VALID,0,
2009-08-19, 00:21:00,VALID,919.186,VALID,0,VALID,100,VALID,-0.0509425,VALID,20.2665,VALID,19,VALID,0.331577,
2009-08-19, 00:22:00,VALID,919.164,VALID,0,VALID,100,VALID,-0.0849042,VALID,20.2475,VALID,13,VALID,0.563859,
2009-08-19, 00:23:00,VALID,919.137,VALID,0,VALID,100,VALID,-0.0339617,VALID,20.2303,VALID,13,VALID,0.530078,
2009-08-19, 00:24:00,VALID,919.109,VALID,0,VALID,100,VALID,-0.0169808,VALID,20.2175,VALID,7,VALID,0.468378,
2009-08-19, 00:25:00,VALID,919.077,VALID,0,VALID,100,VALID,-0.0169808,VALID,20.204,VALID,3,VALID,0.437137,
2009-08-19, 00:26:00,VALID,919.075,VALID,0,VALID,100,VALID,-0.0679233,VALID,20.1983,VALID,3,VALID,0.111737,
2009-08-19, 00:27:00,VALID,919.089,VALID,0,VALID,100,VALID,-0.0339617,VALID,20.1853,VALID,2,VALID,0.295603,
2009-08-19, 00:28:00,VALID,919.103,VALID,0,VALID,100,VALID,-0.0509425,VALID,20.1653,VALID,2,VALID,0.093936,
2009-08-19, 00:29:00,VALID,919.101,VALID,0,VALID,100,VALID,-0.0339617,VALID,20.1624,VALID,2,VALID,0,
2009-08-19, 00:30:00,VALID,919.087,VALID,0,VALID,100,VALID,-0.0509425,VALID,20.1686,VALID,2,VALID,0,
2009-08-19, 00:31:00,VALID,919.072,VALID,0,VALID,100,VALID,-0.0339617,VALID,20.1686,VALID,2,VALID,0,
2009-08-19, 00:32:00,VALID,919.049,VALID,0,VALID,100,VALID,-0.0339617,VALID,20.1753,VALID,2,VALID,0,
2009-08-19, 00:33:00,VALID,919.036,VALID,0,VALID,100,VALID,-0.0509425,VALID,20.1716,VALID,2,VALID,0,
2009-08-19, 00:34:00,VALID,919.014,VALID,0,VALID,100,VALID,-0.0509425,VALID,20.1653,VALID,2,VALID,0,
2009-08-19, 00:35:00,VALID,918.989,VALID,0,VALID,100,VALID,-0.0339617,VALID,20.1811,VALID,2,VALID,0,
2009-08-19, 00:36:00,VALID,918.965,VALID,0,VALID,100,VALID,-0.0169808,VALID,20.1848,VALID,2,VALID,0,
2009-08-19, 00:37:00,VALID,918.952,VALID,0,VALID,100,VALID,-0.0339617,VALID,20.1421,VALID,2,VALID,0,
2009-08-19, 00:38:00,VALID,918.929,VALID,0,VALID,100,VALID,-0.0169808,VALID,20.1361,VALID,2,VALID,0,
2009-08-19, 00:39:00,VALID,918.924,VALID,0,VALID,100,VALID,-0.101885,VALID,20.1294,VALID,2,VALID,0,
2009-08-19, 00:40:00,VALID,918.928,VALID,0,VALID,100,VALID,-0.0509425,VALID,20.1199,VALID,2,VALID,0,
2009-08-19, 00:41:00,VALID,918.925,VALID,0,VALID,100,VALID,-0.0169808,VALID,20.1299,VALID,341,VALID,0.157552,
2009-08-19, 00:42:00,VALID,918.927,VALID,0,VALID,100,VALID,-0.0509425,VALID,20.1456,VALID,336,VALID,0,
2009-08-19, 00:43:00,VALID,918.917,VALID,0,VALID,100,VALID,-0.0339617,VALID,20.1878,VALID,336,VALID,0,
2009-08-19, 00:44:00,VALID,918.896,VALID,0,VALID,100,VALID,-0.0169808,VALID,20.2073,VALID,336,VALID,0,
2009-08-19, 00:45:00,VALID,918.889,VALID,0,VALID,100,VALID,-0.0679233,VALID,20.2303,VALID,336,VALID,0,
2009-08-19, 00:46:00,VALID,918.864,VALID,0,VALID,100,VALID,-0.0339617,VALID,20.2265,VALID,336,VALID,0,
2009-08-19, 00:47:00,VALID,918.848,VALID,0,VALID,100,VALID,-0.0679233,VALID,20.2435,VALID,336,VALID,0,
2009-08-19, 00:48:00,VALID,918.839,VALID,0,VALID,100,VALID,-0.0169808,VALID,20.2435,VALID,336,VALID,0,
2009-08-19, 00:49:00,VALID,918.817,VALID,0,VALID,100,VALID,-0.0679233,VALID,20.247,VALID,336,VALID,0,
2009-08-19, 00:50:00,VALID,918.807,VALID,0,VALID,100,VALID,-0.0169808,VALID,20.23,VALID,336,VALID,0,
2009-08-19, 00:51:00,VALID,918.793,VALID,0,VALID,100,VALID,-0.0679233,VALID,20.2303,VALID,335,VALID,0,
2009-08-19, 00:52:00,VALID,918.791,VALID,0,VALID,100,VALID,-0.0339617,VALID,20.2173,VALID,329,VALID,0.0939317,
2009-08-19, 00:53:00,VALID,918.804,VALID,0,VALID,100,VALID,-0.0339617,VALID,20.2008,VALID,224,VALID,0.64008,
2009-08-19, 00:54:00,VALID,918.811,VALID,0,VALID,100,VALID,-0.0339617,VALID,20.1851,VALID,189,VALID,0.997869,
2009-08-19, 00:55:00,VALID,918.812,VALID,0,VALID,100,VALID,-0.0679233,VALID,20.1556,VALID,186,VALID,0.879724,
2009-08-19, 00:56:00,VALID,918.801,VALID,0,VALID,100,VALID,-0.0849042,VALID,20.1267,VALID,182,VALID,0.618902,
2009-08-19, 00:57:00,VALID,918.797,VALID,0,VALID,100,VALID,-0.0509425,VALID,20.1164,VALID,188,VALID,0.402166,
2009-08-19, 00:58:00,VALID,918.789,VALID,0,VALID,100,VALID,-0.0339617,VALID,20.1097,VALID,188,VALID,0.0488735,
2009-08-19, 00:59:00,VALID,918.79,VALID,0,VALID,100,VALID,-0.0679233,VALID,20.1032,VALID,202,VALID,0.496652,
2009-08-19, 01:00:00,VALID,918.779,VALID,0,VALID,100,VALID,-0.0509425,VALID,20.087,VALID,209,VALID,0.056593,
2009-08-19, 01:01:00,VALID,918.771,VALID,0,VALID,100,VALID,-0.0679233,VALID,20.0907,VALID,209,VALID,0,
2009-08-19, 01:02:00,VALID,918.753,VALID,0,VALID,100,VALID,-0.0679233,VALID,20.081,VALID,209,VALID,0,
2009-08-19, 01:03:00,VALID,918.749,VALID,0,VALID,100,VALID,-0.0849042,VALID,20.081,VALID,209,VALID,0,
2009-08-19, 01:04:00,VALID,918.75,VALID,0,VALID,100,VALID,-0.0509425,VALID,20.0747,VALID,209,VALID,0,
2009-08-19, 01:05:00,VALID,918.753,VALID,0,VALID,100,VALID,-0.0849042,VALID,20.065,VALID,209,VALID,0,
2009-08-19, 01:06:00,VALID,918.742,VALID,0,VALID,100,VALID,-0.0849042,VALID,20.062,VALID,209,VALID,0,
2009-08-19, 01:07:00,VALID,918.732,VALID,0,VALID,100,VALID,-0.0849042,VALID,20.0388,VALID,209,VALID,0,
2009-08-19, 01:08:00,VALID,918.725,VALID,0,VALID,100,VALID,-0.101885,VALID,20.029,VALID,211,VALID,0.20206,
2009-08-19, 01:09:00,VALID,918.737,VALID,0,VALID,100,VALID,-0.0679233,VALID,20.0126,VALID,218,VALID,0.171148,
2009-08-19, 01:10:00,VALID,918.741,VALID,0,VALID,100,VALID,-0.0679233,VALID,20.0063,VALID,218,VALID,0,
2009-08-19, 01:11:00,VALID,918.74,VALID,0,VALID,100,VALID,-0.0679233,VALID,19.9928,VALID,218,VALID,0,
2009-08-19, 01:12:00,VALID,918.732,VALID,0,VALID,100,VALID,-0.0849042,VALID,19.9934,VALID,218,VALID,0,
2009-08-19, 01:13:00,VALID,918.702,VALID,0,VALID,100,VALID,-0.0849042,VALID,19.9804,VALID,218,VALID,0,
2009-08-19, 01:14:00,VALID,918.674,VALID,0,VALID,100,VALID,-0.101885,VALID,19.9776,VALID,218,VALID,0,
2009-08-19, 01:15:00,VALID,918.623,VALID,0,VALID,100,VALID,-0.101885,VALID,19.9711,VALID,218,VALID,0,
2009-08-19, 01:16:00,VALID,918.601,VALID,0,VALID,100,VALID,-0.0679233,VALID,19.9609,VALID,218,VALID,0,
2009-08-19, 01:17:00,VALID,918.58,VALID,0,VALID,100,VALID,-0.0339617,VALID,19.9539,VALID,218,VALID,0,
2009-08-19, 01:18:00,VALID,918.562,VALID,0,VALID,100,VALID,-0.0679233,VALID,19.9579,VALID,218,VALID,0,
2009-08-19, 01:19:00,VALID,918.534,VALID,0,VALID,100,VALID,-0.0509425,VALID,19.9414,VALID,218,VALID,0,
2009-08-19, 01:20:00,VALID,918.524,VALID,0,VALID,100,VALID,-0.0679233,VALID,19.9317,VALID,218,VALID,0.0545139,
2009-08-19, 01:21:00,VALID,918.513,VALID,0,VALID,100,VALID,-0.0169808,VALID,19.9247,VALID,218,VALID,0,
2009-08-19, 01:22:00,VALID,918.492,VALID,0,VALID,100,VALID,-0.0679233,VALID,19.925,VALID,217,VALID,0,
2009-08-19, 01:23:00,VALID,918.457,VALID,0,VALID,100,VALID,-0.0679233,VALID,19.9055,VALID,216,VALID,0,
2009-08-19, 01:24:00,VALID,918.42,VALID,0,VALID,100,VALID,-0.0339617,VALID,19.886,VALID,216,VALID,0,
2009-08-19, 01:25:00,VALID,918.373,VALID,0,VALID,100,VALID,-0.0169808,VALID,19.8436,VALID,216,VALID,0,
2009-08-19, 01:26:00,VALID,918.346,VALID,0,VALID,100,VALID,-0.0679233,VALID,19.7822,VALID,216,VALID,0,
2009-08-19, 01:27:00,VALID,918.344,VALID,0,VALID,100,VALID,-0.0509425,VALID,19.7455,VALID,216,VALID,0,
2009-08-19, 01:28:00,VALID,918.346,VALID,0,VALID,100,VALID,0.0679233,VALID,19.7095,VALID,216,VALID,0,
2009-08-19, 01:29:00,VALID,918.356,VALID,0,VALID,100,VALID,0.0169808,VALID,19.6996,VALID,216,VALID,0,
2009-08-19, 01:30:00,VALID,918.349,VALID,0,VALID,100,VALID,0.0679233,VALID,19.7095,VALID,216,VALID,0,
2009-08-19, 01:31:00,VALID,918.345,VALID,0,VALID,100,VALID,0.0339617,VALID,19.7125,VALID,216,VALID,0,
2009-08-19, 01:32:00,VALID,918.339,VALID,0,VALID,100,VALID,0.0509425,VALID,19.6996,VALID,216,VALID,0,
2009-08-19, 01:33:00,VALID,918.331,VALID,0,VALID,100,VALID,0,VALID,19.6898,VALID,216,VALID,0,
2009-08-19, 01:34:00,VALID,918.348,VALID,0,VALID,100,VALID,0.0679233,VALID,19.6801,VALID,216,VALID,0,
2009-08-19, 01:35:00,VALID,918.365,VALID,0,VALID,100,VALID,0.0679233,VALID,19.6763,VALID,216,VALID,0,
2009-08-19, 01:36:00,VALID,918.353,VALID,0,VALID,100,VALID,0.0509425,VALID,19.6701,VALID,216,VALID,0,
2009-08-19, 01:37:00,VALID,918.338,VALID,0,VALID,100,VALID,0.0339617,VALID,19.6671,VALID,216,VALID,0,
2009-08-19, 01:38:00,VALID,918.306,VALID,0,VALID,100,VALID,0,VALID,19.6639,VALID,216,VALID,0,
2009-08-19, 01:39:00,VALID,918.27,VALID,0,VALID,100,VALID,0.0509425,VALID,19.6701,VALID,216,VALID,0,
2009-08-19, 01:40:00,VALID,918.244,VALID,0,VALID,100,VALID,0.0679233,VALID,19.6728,VALID,216,VALID,0,
2009-08-19, 01:41:00,VALID,918.214,VALID,0,VALID,100,VALID,0.101885,VALID,19.6896,VALID,216,VALID,0,
2009-08-19, 01:42:00,VALID,918.213,VALID,0,VALID,100,VALID,0.0509425,VALID,19.6766,VALID,216,VALID,0,
2009-08-19, 01:43:00,VALID,918.213,VALID,0,VALID,100,VALID,0.0509425,VALID,19.6733,VALID,216,VALID,0,
2009-08-19, 01:44:00,VALID,918.204,VALID,0,VALID,100,VALID,0.0509425,VALID,19.6676,VALID,216,VALID,0,
2009-08-19, 01:45:00,VALID,918.208,VALID,0,VALID,100,VALID,0.0339617,VALID,19.6639,VALID,216,VALID,0,
2009-08-19, 01:46:00,VALID,918.191,VALID,0,VALID,100,VALID,0.0339617,VALID,19.6536,VALID,207,VALID,0,
2009-08-19, 01:47:00,VALID,918.192,VALID,0,VALID,100,VALID,0.0679233,VALID,19.6441,VALID,185,VALID,0,
2009-08-19, 01:48:00,VALID,918.176,VALID,0,VALID,100,VALID,0.0849042,VALID,19.6342,VALID,171,VALID,0,
2009-08-19, 01:49:00,VALID,918.155,VALID,0,VALID,100,VALID,0.0679233,VALID,19.6439,VALID,169,VALID,0,
2009-08-19, 01:50:00,VALID,918.15,VALID,0,VALID,100,VALID,0.0849042,VALID,19.6733,VALID,165,VALID,0,
2009-08-19, 01:51:00,VALID,918.146,VALID,0,VALID,100,VALID,0.0679233,VALID,19.6664,VALID,164,VALID,0,
2009-08-19, 01:52:00,VALID,918.138,VALID,0,VALID,100,VALID,0.0509425,VALID,19.6733,VALID,164,VALID,0,
2009-08-19, 01:53:00,VALID,918.121,VALID,0,VALID,100,VALID,0.0679233,VALID,19.6511,VALID,164,VALID,0,
2009-08-19, 01:54:00,VALID,918.122,VALID,0,VALID,100,VALID,0.0339617,VALID,19.6117,VALID,164,VALID,0,
2009-08-19, 01:55:00,VALID,918.123,VALID,0,VALID,100,VALID,0.0679233,VALID,19.5728,VALID,164,VALID,0,
2009-08-19, 01:56:00,VALID,918.136,VALID,0,VALID,100,VALID,0.0849042,VALID,19.5533,VALID,164,VALID,0,
2009-08-19, 01:57:00,VALID,918.153,VALID,0,VALID,100,VALID,0.0509425,VALID,19.5276,VALID,164,VALID,0,
2009-08-19, 01:58:00,VALID,918.157,VALID,0,VALID,100,VALID,0.0339617,VALID,19.5468,VALID,164,VALID,0,
2009-08-19, 01:59:00,VALID,918.2,VALID,0,VALID,100,VALID,0.0169808,VALID,19.5438,VALID,164,VALID,0,
2009-08-19, 02:00:00,VALID,918.22,VALID,0,VALID,100,VALID,0.0169808,VALID,19.5633,VALID,127,VALID,0.344792,
2009-08-19, 02:01:00,VALID,918.237,VALID,0,VALID,100,VALID,0.0509425,VALID,19.6,VALID,106,VALID,0.598028,
2009-08-19, 02:02:00,VALID,918.231,VALID,0,VALID,100,VALID,0.0339617,VALID,19.606,VALID,105,VALID,0.60992,
2009-08-19, 02:03:00,VALID,918.195,VALID,0,VALID,100,VALID,0.0169808,VALID,19.6122,VALID,104,VALID,0.561612,
2009-08-19, 02:04:00,VALID,918.16,VALID,0,VALID,100,VALID,-0.0169808,VALID,19.6219,VALID,104,VALID,0.0964844,
2009-08-19, 02:05:00,VALID,918.12,VALID,0,VALID,100,VALID,0,VALID,19.6484,VALID,104,VALID,0,
2009-08-19, 02:06:00,VALID,918.093,VALID,0,VALID,100,VALID,0.0339617,VALID,19.6708,VALID,104,VALID,0,
2009-08-19, 02:07:00,VALID,918.089,VALID,0,VALID,100,VALID,0.0169808,VALID,19.6736,VALID,104,VALID,0,
2009-08-19, 02:08:00,VALID,918.077,VALID,0,VALID,100,VALID,0.0169808,VALID,19.6866,VALID,104,VALID,0,
2009-08-19, 02:09:00,VALID,918.08,VALID,0,VALID,100,VALID,0.0339617,VALID,19.6836,VALID,104,VALID,0,
2009-08-19, 02:10:00,VALID,918.075,VALID,0,VALID,100,VALID,0.0339617,VALID,19.6871,VALID,104,VALID,0,
2009-08-19, 02:11:00,VALID,918.072,VALID,0,VALID,100,VALID,0.0509425,VALID,19.6639,VALID,104,VALID,0,
2009-08-19, 02:12:00,VALID,918.064,VALID,0,VALID,100,VALID,0,VALID,19.6506,VALID,104,VALID,0,
2009-08-19, 02:13:00,VALID,918.073,VALID,0,VALID,100,VALID,0.0849042,VALID,19.6409,VALID,104,VALID,0,
2009-08-19, 02:14:00,VALID,918.086,VALID,0,VALID,100,VALID,0.0339617,VALID,19.6509,VALID,104,VALID,0,
2009-08-19, 02:15:00,VALID,918.09,VALID,0,VALID,100,VALID,0.0509425,VALID,19.6539,VALID,104,VALID,0,
2009-08-19, 02:16:00,VALID,918.095,VALID,0,VALID,100,VALID,0.0169808,VALID,19.6671,VALID,104,VALID,0,
2009-08-19, 02:17:00,VALID,918.1,VALID,0,VALID,100,VALID,0.0339617,VALID,19.6768,VALID,104,VALID,0,
2009-08-19, 02:18:00,VALID,918.078,VALID,0,VALID,100,VALID,0.0169808,VALID,19.6771,VALID,104,VALID,0,
2009-08-19, 02:19:00,VALID,918.069,VALID,0,VALID,100,VALID,0.0509425,VALID,19.6571,VALID,104,VALID,0,
2009-08-19, 02:20:00,VALID,918.053,VALID,0,VALID,100,VALID,0.0339617,VALID,19.6544,VALID,104,VALID,0,
2009-08-19, 02:21:00,VALID,918.037,VALID,0,VALID,100,VALID,0.0169808,VALID,19.6247,VALID,104,VALID,0,
2009-08-19, 02:22:00,VALID,918.02,VALID,0,VALID,100,VALID,0.0169808,VALID,19.6282,VALID,104,VALID,0,
2009-08-19, 02:23:00,VALID,918.011,VALID,0,VALID,100,VALID,0.0679233,VALID,19.6282,VALID,104,VALID,0,
2009-08-19, 02:24:00,VALID,917.99,VALID,0,VALID,100,VALID,0.0339617,VALID,19.6214,VALID,104,VALID,0,
2009-08-19, 02:25:00,VALID,917.977,VALID,0,VALID,100,VALID,0.0339617,VALID,19.5985,VALID,104,VALID,0,
2009-08-19, 02:26:00,VALID,917.969,VALID,0,VALID,100,VALID,0.0509425,VALID,19.6085,VALID,104,VALID,0.171875,
2009-08-19, 02:27:00,VALID,917.979,VALID,0,VALID,100,VALID,-0.0169808,VALID,19.6092,VALID,114,VALID,0.648098,
2009-08-19, 02:28:00,VALID,918.01,VALID,0,VALID,100,VALID,-0.0509425,VALID,19.6229,VALID,124,VALID,0.968928,
2009-08-19, 02:29:00,VALID,918.022,VALID,0,VALID,100,VALID,-0.0849042,VALID,19.6327,VALID,135,VALID,0.944336,
2009-08-19, 02:30:00,VALID,918.012,VALID,0,VALID,100,VALID,-0.0169808,VALID,19.6456,VALID,141,VALID,0.884301,
2009-08-19, 02:31:00,VALID,918.001,VALID,0,VALID,100,VALID,-0.0849042,VALID,19.6589,VALID,144,VALID,0.285334,
2009-08-19, 02:32:00,VALID,917.99,VALID,0,VALID,100,VALID,-0.0849042,VALID,19.6619,VALID,144,VALID,0,
2009-08-19, 02:33:00,VALID,917.973,VALID,0,VALID,100,VALID,-0.0679233,VALID,19.6554,VALID,144,VALID,0,
2009-08-19, 02:34:00,VALID,917.945,VALID,0,VALID,100,VALID,-0.0509425,VALID,19.6554,VALID,144,VALID,0,
2009-08-19, 02:35:00,VALID,917.926,VALID,0,VALID,100,VALID,-0.101885,VALID,19.6459,VALID,144,VALID,0,
2009-08-19, 02:36:00,VALID,917.889,VALID,0,VALID,100,VALID,-0.0849042,VALID,19.6292,VALID,149,VALID,0.172991,
2009-08-19, 02:37:00,VALID,917.853,VALID,0,VALID,100,VALID,-0.0509425,VALID,19.6259,VALID,162,VALID,0.531432,
2009-08-19, 02:38:00,VALID,917.806,VALID,0,VALID,100,VALID,-0.0339617,VALID,19.6289,VALID,162,VALID,0.599746,
2009-08-19, 02:39:00,VALID,917.757,VALID,0,VALID,100,VALID,0,VALID,19.6586,VALID,163,VALID,0.470881,
2009-08-19, 02:40:00,VALID,917.72,VALID,0,VALID,100,VALID,-0.0849042,VALID,19.6649,VALID,164,VALID,0.00230824,
2009-08-19, 02:41:00,VALID,917.69,VALID,0,VALID,100,VALID,-0.0339617,VALID,19.6778,VALID,164,VALID,0,
2009-08-19, 02:42:00,VALID,917.679,VALID,0,VALID,100,VALID,0,VALID,19.6581,VALID,164,VALID,0,
2009-08-19, 02:43:00,VALID,917.677,VALID,0,VALID,100,VALID,0,VALID,19.6489,VALID,164,VALID,0,
2009-08-19, 02:44:00,VALID,917.636,VALID,0,VALID,100,VALID,-0.0169808,VALID,19.6129,VALID,164,VALID,0,
2009-08-19, 02:45:00,VALID,917.584,VALID,0,VALID,100,VALID,-0.0509425,VALID,19.5773,VALID,164,VALID,0,
2009-08-19, 02:46:00,VALID,917.535,VALID,0,VALID,100,VALID,-0.0509425,VALID,19.571,VALID,164,VALID,0,
2009-08-19, 02:47:00,VALID,917.495,VALID,0,VALID,100,VALID,-0.0509425,VALID,19.571,VALID,164,VALID,0,
2009-08-19, 02:48:00,VALID,917.477,VALID,0,VALID,100,VALID,-0.0509425,VALID,19.5448,VALID,164,VALID,0,
2009-08-19, 02:49:00,VALID,917.472,VALID,0,VALID,100,VALID,-0.0169808,VALID,19.4055,VALID,164,VALID,0,
2009-08-19, 02:50:00,VALID,917.474,VALID,0,VALID,100,VALID,-0.0849042,VALID,19.305,VALID,164,VALID,0,
2009-08-19, 02:51:00,VALID,917.473,VALID,0,VALID,100,VALID,-0.0509425,VALID,19.3569,VALID,164,VALID,0.305804,
2009-08-19, 02:52:00,VALID,917.462,VALID,0,VALID,100,VALID,-0.0509425,VALID,19.4866,VALID,164,VALID,0.578906,
2009-08-19, 02:53:00,VALID,917.45,VALID,0,VALID,100,VALID,-0.0169808,VALID,19.5513,VALID,164,VALID,0.192406,
2009-08-19, 02:54:00,VALID,917.422,VALID,0,VALID,100,VALID,-0.0849042,VALID,19.5648,VALID,164,VALID,0,
2009-08-19, 02:55:00,VALID,917.41,VALID,0,VALID,100,VALID,-0.0339617,VALID,19.5451,VALID,164,VALID,0,
2009-08-19, 02:56:00,VALID,917.392,VALID,0,VALID,100,VALID,-0.0679233,VALID,19.5158,VALID,170,VALID,0,
2009-08-19, 02:57:00,VALID,917.38,VALID,0,VALID,100,VALID,-0.0679233,VALID,19.4769,VALID,174,VALID,0.0456321,
2009-08-19, 02:58:00,VALID,917.371,VALID,0,VALID,100,VALID,-0.0679233,VALID,19.4574,VALID,174,VALID,0,
2009-08-19, 02:59:00,VALID,917.338,VALID,0,VALID,100,VALID,-0.0679233,VALID,19.4153,VALID,174,VALID,0,
2009-08-19, 03:00:00,VALID,917.326,VALID,0,VALID,100,VALID,-0.101885,VALID,19.3052,VALID,174,VALID,0,
2009-08-19, 03:01:00,VALID,917.325,VALID,0,VALID,100,VALID,-0.101885,VALID,19.1624,VALID,174,VALID,0,
2009-08-19, 03:02:00,VALID,917.311,VALID,0,VALID,100,VALID,-0.101885,VALID,19.146,VALID,174,VALID,0,
2009-08-19, 03:03:00,VALID,917.325,VALID,0,VALID,100,VALID,-0.101885,VALID,19.1784,VALID,174,VALID,0,
2009-08-19, 03:04:00,VALID,917.312,VALID,0,VALID,100,VALID,-0.0679233,VALID,19.2014,VALID,174,VALID,0,
2009-08-19, 03:05:00,VALID,917.31,VALID,0,VALID,100,VALID,0.0169808,VALID,19.2196,VALID,174,VALID,0,
2009-08-19, 03:06:00,VALID,917.331,VALID,0,VALID,100,VALID,0,VALID,19.2224,VALID,174,VALID,0,
2009-08-19, 03:07:00,VALID,917.342,VALID,0,VALID,100,VALID,0,VALID,19.2354,VALID,174,VALID,0,
2009-08-19, 03:08:00,VALID,917.345,VALID,0,VALID,100,VALID,-0.0169808,VALID,19.2618,VALID,174,VALID,0,
2009-08-19, 03:09:00,VALID,917.357,VALID,0,VALID,100,VALID,0,VALID,19.285,VALID,174,VALID,0,
2009-08-19, 03:10:00,VALID,917.375,VALID,0,VALID,100,VALID,0,VALID,19.294,VALID,174,VALID,0,
2009-08-19, 03:11:00,VALID,917.409,VALID,0,VALID,100,VALID,0,VALID,19.3167,VALID,174,VALID,0,
2009-08-19, 03:12:00,VALID,917.423,VALID,0,VALID,100,VALID,-0.0509425,VALID,19.3531,VALID,174,VALID,0,
2009-08-19, 03:13:00,VALID,917.422,VALID,0,VALID,100,VALID,-0.118866,VALID,19.4055,VALID,174,VALID,0,
2009-08-19, 03:14:00,VALID,917.415,VALID,0,VALID,100,VALID,-0.101885,VALID,19.4707,VALID,174,VALID,0,
2009-08-19, 03:15:00,VALID,917.398,VALID,0,VALID,100,VALID,-0.101885,VALID,19.5129,VALID,174,VALID,0,
2009-08-19, 03:16:00,VALID,917.405,VALID,0,VALID,100,VALID,-0.101885,VALID,19.558,VALID,174,VALID,0,
2009-08-19, 03:17:00,VALID,917.423,VALID,0,VALID,100,VALID,-0.101885,VALID,19.581,VALID,174,VALID,0,
2009-08-19, 03:18:00,VALID,917.425,VALID,0,VALID,100,VALID,-0.0849042,VALID,19.5875,VALID,174,VALID,0,
2009-08-19, 03:19:00,VALID,917.418,VALID,0,VALID,100,VALID,-0.118866,VALID,19.6007,VALID,174,VALID,0,
2009-08-19, 03:20:00,VALID,917.409,VALID,0,VALID,100,VALID,-0.101885,VALID,19.6037,VALID,174,VALID,0,
2009-08-19, 03:21:00,VALID,917.385,VALID,0,VALID,100,VALID,-0.135847,VALID,19.6074,VALID,174,VALID,0,
2009-08-19, 03:22:00,VALID,917.401,VALID,0,VALID,100,VALID,-0.118866,VALID,19.6072,VALID,174,VALID,0,
2009-08-19, 03:23:00,VALID,917.407,VALID,0,VALID,100,VALID,-0.101885,VALID,19.6037,VALID,174,VALID,0,
2009-08-19, 03:24:00,VALID,917.413,VALID,0,VALID,100,VALID,-0.118866,VALID,19.6069,VALID,174,VALID,0,
2009-08-19, 03:25:00,VALID,917.428,VALID,0,VALID,100,VALID,-0.101885,VALID,19.6102,VALID,174,VALID,0,
2009-08-19, 03:26:00,VALID,917.425,VALID,0,VALID,100,VALID,-0.101885,VALID,19.6069,VALID,174,VALID,0,
2009-08-19, 03:27:00,VALID,917.404,VALID,0,VALID,100,VALID,-0.0679233,VALID,19.6192,VALID,174,VALID,0,
2009-08-19, 03:28:00,VALID,917.411,VALID,0,VALID,100,VALID,0,VALID,19.6479,VALID,174,VALID,0,
2009-08-19, 03:29:00,VALID,917.421,VALID,0,VALID,100,VALID,-0.0169808,VALID,19.6541,VALID,174,VALID,0,
2009-08-19, 03:30:00,VALID,917.428,VALID,0,VALID,100,VALID,-0.0339617,VALID,19.6738,VALID,174,VALID,0,
2009-08-19, 03:31:00,VALID,917.425,VALID,0,VALID,100,VALID,-0.0169808,VALID,19.6768,VALID,174,VALID,0,
2009-08-19, 03:32:00,VALID,917.408,VALID,0,VALID,100,VALID,0,VALID,19.6798,VALID,174,VALID,0,
2009-08-19, 03:33:00,VALID,917.378,VALID,0,VALID,100,VALID,-0.0169808,VALID,19.6768,VALID,174,VALID,0,
2009-08-19, 03:34:00,VALID,917.349,VALID,0,VALID,100,VALID,0,VALID,19.6931,VALID,174,VALID,0,
2009-08-19, 03:35:00,VALID,917.318,VALID,0,VALID,100,VALID,0,VALID,19.7193,VALID,176,VALID,0,
2009-08-19, 03:36:00,VALID,917.308,VALID,0,VALID,100,VALID,-0.0169808,VALID,19.732,VALID,223,VALID,0,
2009-08-19, 03:37:00,VALID,917.301,VALID,0,VALID,100,VALID,0,VALID,19.7674,VALID,248,VALID,0,
2009-08-19, 03:38:00,VALID,917.314,VALID,0,VALID,100,VALID,0.0169808,VALID,19.7934,VALID,248,VALID,0,
2009-08-19, 03:39:00,VALID,917.312,VALID,0,VALID,100,VALID,0,VALID,19.7966,VALID,244,VALID,0,
2009-08-19, 03:40:00,VALID,917.332,VALID,0,VALID,100,VALID,-0.0169808,VALID,19.7936,VALID,193,VALID,0,
2009-08-19, 03:41:00,VALID,917.333,VALID,0,VALID,100,VALID,0.0169808,VALID,19.7966,VALID,192,VALID,0,
2009-08-19, 03:42:00,VALID,917.327,VALID,0,VALID,100,VALID,0.0169808,VALID,19.8066,VALID,192,VALID,0,
2009-08-19, 03:43:00,VALID,917.324,VALID,0,VALID,100,VALID,0,VALID,19.8131,VALID,192,VALID,0,
2009-08-19, 03:44:00,VALID,917.286,VALID,0,VALID,100,VALID,0.0339617,VALID,19.8129,VALID,193,VALID,0,
2009-08-19, 03:45:00,VALID,917.259,VALID,0,VALID,100,VALID,0.0339617,VALID,19.8291,VALID,194,VALID,0,
2009-08-19, 03:46:00,VALID,917.247,VALID,0,VALID,100,VALID,0,VALID,19.8393,VALID,194,VALID,0,
2009-08-19, 03:47:00,VALID,917.263,VALID,0,VALID,100,VALID,0,VALID,19.8388,VALID,195,VALID,0,
2009-08-19, 03:48:00,VALID,917.297,VALID,0,VALID,100,VALID,0,VALID,19.8553,VALID,195,VALID,0,
2009-08-19, 03:49:00,VALID,917.329,VALID,0,VALID,100,VALID,0.0169808,VALID,19.8518,VALID,194,VALID,0,